Weather History for Akron Canton, OH

Change the Weather History Date:

Monday, April 28, 2014

  Actual Average Record
Temperature  
Mean Temperature 51 °F 54 °F  
Max Temperature 56 °F 64 °F 88 °F (1986)
Min Temperature 45 °F 43 °F 25 °F (1947)
Degree Days  
Heating Degree Days 14 12  
Month to date heating degree days 397 457  
Since 1 July heating degree days 6236 5852  
Cooling Degree Days 0 0  
Month to date cooling degree days 3 0  
Year to date cooling degree days 3 0  
Moisture  
Dew Point 41 °F    
Average Humidity 73    
Maximum Humidity 96    
Minimum Humidity 50    
Precipitation  
Precipitation 0.32 in 0.11 in 1.39 in (1958)
Month to date precipitation 3.78 3.32  
Year to date precipitation 9.87 11.22  
Snow  
Snow 0.00 in 0.00 in - ()
Month to date snowfall 0.9 2.7  
Since 1 July snowfall 69.9 47.4  
Snow Depth 0.00 in    
Sea Level Pressure  
Sea Level Pressure 29.91 in    
Wind  
Wind Speed 11 mph (East)    
Max Wind Speed 24 mph    
Max Gust Speed 24 mph    
Visibility 6 miles    
Events Rain    
T = Trace of Precipitation, MM = Missing Value Source: NWS Daily Summary

Daily Weather History Graph

Daily Weather History Graph

Search for Another Location

Airport:

Trip Planner

Search our weather history database for the weather conditions in past years. The results will help you decide how hot, cold, wet, or windy it might be!

Date:

Astronomy

Apr. 28, 2014 Rise Set
Actual Time 6:27 AM EDT 8:19 PM EDT
Civil Twilight 5:58 AM EDT 8:48 PM EDT
Nautical Twilight 5:22 AM EDT 9:24 PM EDT
Astronomical Twilight 4:43 AM EDT 10:03 PM EDT
Moon 6:05 AM EDT (4/28) 7:55 PM EDT (4/28)
Length of Visible Light 14h 50m
Length of Day
13h 51m
Waning Crescent, 0% of the Moon is Illuminated
Apr 28
Waning Crescent
Apr 29
New
May 6
First Quarter
May 14
Full
May 21
Last Quarter

Hourly Weather History & Observations

Time (EDT) Temp. Windchill Dew Point Humidity Pressure Visibility Wind Dir Wind Speed Gust Speed Precip Events Conditions
12:51 AM 48.0 °F - 33.3 °F 57% 30.03 in 10.0 mi East 8.1 mph - N/A   Mostly Cloudy
1:51 AM 46.0 °F 41.0 °F 33.3 °F 61% 30.01 in 10.0 mi East 10.4 mph - N/A   Scattered Clouds
2:51 AM 45.0 °F 39.7 °F 34.0 °F 65% 30.00 in 10.0 mi East 10.4 mph - N/A   Scattered Clouds
3:51 AM 45.0 °F 40.6 °F 34.0 °F 65% 30.01 in 10.0 mi East 8.1 mph - N/A   Partly Cloudy
4:51 AM 45.0 °F 40.6 °F 33.1 °F 63% 29.97 in 10.0 mi East 8.1 mph - N/A   Partly Cloudy
5:51 AM 45.0 °F 39.7 °F 33.1 °F 63% 29.96 in 10.0 mi East 10.4 mph - N/A   Partly Cloudy
6:51 AM 46.0 °F 40.6 °F 32.0 °F 58% 29.96 in 10.0 mi East 11.5 mph - N/A   Mostly Cloudy
7:51 AM 46.9 °F - 34.0 °F 61% 29.95 in 10.0 mi East 16.1 mph - N/A   Mostly Cloudy
8:51 AM 48.0 °F - 34.0 °F 58% 29.95 in 10.0 mi East 20.7 mph - N/A   Overcast
9:51 AM 51.8 °F - 33.8 °F 50% 29.92 in 10.0 mi ESE 18.4 mph - N/A   Overcast
10:51 AM 54.0 °F - 36.0 °F 51% 29.91 in 10.0 mi East 20.7 mph - N/A   Overcast
11:51 AM 54.0 °F - 36.0 °F 51% 29.91 in 10.0 mi ESE 20.7 mph - N/A   Overcast
12:51 PM 52.0 °F - 39.9 °F 63% 29.93 in 7.0 mi East 10.4 mph - 0.02 in Rain Light Rain
1:51 PM 52.0 °F - 44.1 °F 74% 29.91 in 7.0 mi East 9.2 mph - 0.04 in Rain Light Rain
2:51 PM 52.0 °F - 44.1 °F 74% 29.90 in 7.0 mi ESE 9.2 mph - 0.05 in Rain Light Rain
3:51 PM 49.1 °F - 46.8 °F 92% 29.88 in 3.0 mi East 9.2 mph - 0.14 in Rain Light Rain
4:51 PM 49.3 °F - 47.3 °F 93% 29.88 in 3.0 mi East 11.5 mph - 0.06 in Rain Light Rain
5:42 PM 50.0 °F - 48.2 °F 94% 29.84 in 2.0 mi East 9.2 mph - 0.00 in   Overcast
5:51 PM 50.2 °F - 47.8 °F 92% 29.86 in 2.0 mi East 9.2 mph - 0.00 in   Overcast
6:22 PM 50.0 °F - 48.2 °F 94% 29.87 in 6.0 mi SE 9.2 mph - N/A   Overcast
6:34 PM 50.0 °F - 48.2 °F 94% 29.86 in 2.0 mi SE 9.2 mph - 0.00 in Rain Light Rain
6:49 PM 50.0 °F - 48.2 °F 94% 29.86 in 3.0 mi SE 6.9 mph - 0.01 in   Overcast
6:51 PM 50.0 °F - 48.2 °F 94% 29.86 in 6.0 mi SE 6.9 mph - N/A   Overcast
7:51 PM 50.2 °F - 49.1 °F 96% 29.82 in 2.0 mi East 9.2 mph - N/A   Overcast
8:51 PM 50.0 °F - 49.3 °F 97% 29.81 in 2.0 mi East 13.8 mph - N/A   Overcast
9:51 PM 50.4 °F - 49.5 °F 97% 29.84 in 2.0 mi ESE 6.9 mph - N/A   Overcast
10:51 PM 50.0 °F - 50.0 °F 100% 29.80 in 2.0 mi East 9.2 mph - N/A   Overcast
11:51 PM 50.5 °F - 48.9 °F 94% 29.80 in 2.0 mi East 5.8 mph - N/A   Overcast